Location: Bothwell
(42.3833°S, 147.0000°E)
Time: 04:51:28
(UTC+10:00)

PCSat - Visible Passes

Search period start: 28 September 2022 00:00
Search period end: 08 October 2022 01:00
Orbit: 785 x 793 km, 67.1° (Epoch: 27 September)

Date Brightness Start Highest point End Pass type
(mag) Time Alt. Az. Time Alt. Az. Time Alt. Az.
28 Sep 12.4 01:10:50 13° S 01:10:50 13° S 01:11:33 10° S visible
29 Sep 12.4 00:40:10 12° S 00:40:10 12° S 00:40:40 10° S visible
30 Sep 12.5 00:09:27 11° SSE 00:09:27 11° SSE 00:09:42 10° SSE visible
30 Sep 12.5 23:38:42 10° SSE 23:38:42 10° SSE 23:38:42 10° SSE visible
02 Oct 12.4 00:48:33 11° SSW 00:48:33 11° SSW 00:49:16 10° S visible
03 Oct 12.4 01:17:40 13° S 01:17:40 13° S 01:18:40 10° S visible
04 Oct 12.3 00:46:42 14° S 00:46:42 14° S 00:47:54 10° S visible
04 Oct 12.3 05:59:55 10° S 06:02:40 14° SE 06:05:25 10° ESE visible
05 Oct 12.1 00:15:38 16° S 00:15:38 16° S 00:17:01 10° S visible
05 Oct 12.6 05:29:41 10° SSE 05:31:09 11° SSE 05:32:37 10° SE visible
05 Oct 11.9 23:44:22 19° S 23:44:22 19° S 23:46:05 10° SSE visible
06 Oct 11.5 23:12:50 23° S 23:12:50 23° S 23:15:04 10° SSE visible
07 Oct 12.5 00:54:00 10° SW 00:54:42 10° SSW 00:55:23 10° SSW visible
07 Oct 10.8 22:40:45 35° S 22:40:45 35° S 22:44:00 10° SSE visible
08 Oct 12.3 00:21:16 11° WSW 00:23:09 13° SW 00:25:35 10° S visible
